Regional Weather Roundup
Issued by NWS Sioux Falls, SD

Home | Current Version | Previous Version | Graphics & Text | Print | Product List | Glossary Off
Versions: 1 2 3 4 5 6 7 8 9 10 11 12 13 14 15 16 17 18 19 20 21 22 23 24 25 26 27 28 29 30 31 32 33 34 35 36 37 38 39 40 41 42 43 44 45 46 47 48 49 50

000
ASUS43 KFSD 292010
RWRFSD

WEATHER ROUNDUP FOR SE SOUTH DAKOTA/SW MINNESOTA/NW IOWA
NATIONAL WEATHER SERVICE SIOUX FALLS SD
200 PM CST THU JAN 29 2015

NOTE: "FAIR" INDICATES FEW OR NO CLOUDS BELOW 12,000 FEET WITH NO
SIGNIFICANT WEATHER AND OR OBSTRUCTIONS TO VISIBILITY.


SDZ038>040-050-052>070-292100-
SOUTHEAST SOUTH DAKOTA

CITY           SKY/WX    TMP DP  RH WIND       PRES   REMARKS
CHAMBERLAIN    SUNNY     35  23  60 NW17G23   30.46S WCI  25
HURON          CLOUDY    30  21  69 N17       30.47S WCI  18
MADISON        CLOUDY    27  27 100 NW24G31   30.41S WCI  12
MITCHELL       CLOUDY    33  22  63 N18       30.47F WCI  22
SIOUX FALLS    CLOUDY    31  21  66 NW21G28   30.41S WCI  18
WINNER         FAIR      42  23  46 N16       30.45F
YANKTON        CLOUDY    36  23  60 NW17G26   30.46R
$$

MNZ071-072-080-081-089-090-097-098-292100-
SOUTHWEST MINNESOTA

CITY           SKY/WX    TMP DP  RH WIND       PRES   REMARKS
FAIRMONT       CLOUDY    28  18  64 NW30G38   30.32R WCI  13
JACKSON        CLOUDY    28  21  74 NW24G36   30.35R WCI  14
LUVERNE        CLOUDY    32  23  69 N21G28    30.40R WCI  20
MARSHALL       CLOUDY    27  18  69 N22G31    30.41R WCI  12
MONTEVIDEO     CLOUDY    23  18  80 N24G36    30.42S WCI   7
PIPESTONE      CLOUDY    28  21  74 N14G25    30.37S WCI  17
REDWOOD FALLS  CLOUDY    25  16  68 NW24G39   30.38R WCI   9
TRACY          CLOUDY    27  22  82 NW23G30   30.39R WCI  12
WINDOM         CLOUDY    27  19  74 NW28G35   30.36R WCI  11
WORTHINGTON    CLOUDY    27  19  74 NW21G26   30.37S WCI  13
$$

IAZ001>003-012>014-020>022-031-032-NEZ013-014-SDZ071-292100-
NORTHWEST IOWA

CITY           SKY/WX    TMP DP  RH WIND       PRES   REMARKS
CHEROKEE       CLOUDY    32  26  77 NW14G23   30.38S WCI  22
DENISON        CLOUDY    34  25  69 N17G24    30.36S WCI  23
ESTHERVILLE    CLOUDY    28  20  71 NW28G39   30.34S WCI  13
LE MARS        CLOUDY    34  27  75 N15G22    30.41F WCI  24
ORANGE CITY    CLOUDY    34  25  69 N16G22    30.39S WCI  23
SHELDON        CLOUDY    30  25  80 NW21G28   30.37S WCI  17
SIOUX CITY     CLOUDY    36  26  67 NW18      30.41S
SPENCER        CLOUDY    31  21  66 NW21G31   30.36S WCI  18
STORM LAKE     CLOUDY    32  25  74 N21       30.36S WCI  20
$$

ABBREVIATIONS USED IN REMARKS
   TC - TEMPERATURE IN CELSIUS
  WCI - WIND CHILL INDEX
   HX - HEAT INDEX
  VSB - VISIBILITY




USA.gov is the U.S. government's official web portal to all federal, state and local government web resources and services.